Location: Fernhill
(41.0167°S, 175.6333°E)
Time: 17:07:58
(UTC+00:00)

Cosmos 1833 Rocket - Pass Details

Date: 16 February 2026
Orbit: 832 x 837 km, 71.0° (Epoch: 8 March)

Event Time Altitude Azimuth Distance (km) Brightness Sun altitude
Exits shadow 11:48:18 11° 122° (ESE) 2,419 5.2 -35.8°
Drops below altitude 10° 11:48:27 10° 123° (ESE) 2,458 5.3 -35.8°
Sets 11:51:37 0° 140° (SE) 3,414 6.3 -36.0°
